FW8740 Weather Reports


Display with metric or nautical units.
time (UTC)temp
F
wind
direction
speed
MPH
gust
MPH
rain 1hr
in
rain 24hr
in
rain mn
in
humidity
%
barometer
mb
20260901040222 68 114 0.0 0.0 0.00 0.00 0.00 94 1021.1
20260901035721 68 114 0.0 0.0 0.00 0.01 0.01 94 1021.2
20260901035220 68 112 0.0 0.0 0.00 0.01 0.01 94 1021.1
20260901034719 68 113 0.0 0.0 0.00 0.01 0.01 94 1021.1
20260901034214 68 114 0.0 0.0 0.00 0.01 0.01 94 1021.5
20260901033714 68 116 0.0 0.0 0.00 0.01 0.01 94 1021.3
20260901033213 68 117 0.0 0.0 0.00 0.01 0.01 94 1021.3
20260901032713 68 116 0.0 0.0 0.00 0.01 0.01 94 1021.5
20260901032213 68 118 0.0 0.0 0.00 0.01 0.01 94 1021.3
20260901031708 68 116 0.0 0.0 0.00 0.01 0.01 94 1021.6
20260901031203 68 116 0.0 0.0 0.00 0.01 0.01 94 1021.5
20260901030658 68 122 0.0 0.0 0.00 0.01 0.01 94 1021.5
20260901030147 68 112 0.0 0.0 0.00 0.01 0.01 94 1021.6
20260901025641 68 124 0.0 0.0 0.00 0.01 0.01 94 1021.5
20260901025136 68 123 0.0 0.0 0.00 0.01 0.01 94 1021.7
20260901024630 68 117 0.0 0.0 0.00 0.01 0.01 94 1021.8
20260901024130 68 111 0.0 0.0 0.00 0.01 0.01 94 1022.1
20260901023629 69 115 0.0 0.0 0.00 0.01 0.01 94 1021.8
20260901023123 69 117 0.0 0.0 0.00 0.01 0.01 94 1021.8
20260901022619 69 118 0.0 0.0 0.00 0.01 0.01 94 1021.8
20260901022114 69 117 0.0 0.0 0.00 0.01 0.01 94 1021.8
20260901021610 69 116 0.0 0.0 0.00 0.01 0.01 94 1021.8
20260901021104 69 116 0.0 0.0 0.00 0.01 0.01 94 1021.9
20260901020600 69 130 0.0 0.0 0.00 0.01 0.01 94 1021.9
20260901020055 69 116 0.0 0.0 0.00 0.01 0.01 94 1022.0
20260901015551 69 115 0.0 0.0 0.00 0.01 0.01 94 1021.8
20260901015050 69 118 0.0 0.0 0.00 0.01 0.01 93 1021.9
20260901014546 69 117 0.0 0.0 0.00 0.01 0.01 93 1022.1
20260901014042 69 116 0.0 0.0 0.00 0.01 0.01 93 1022.0
20260901013537 69 116 0.0 0.0 0.00 0.01 0.01 93 1022.1
20260901013033 69 116 0.0 0.0 0.00 0.01 0.01 93 1021.9
20260901012532 69 115 0.0 0.0 0.00 0.01 0.01 93 1021.9
20260901012028 69 115 0.0 0.0 0.00 0.01 0.01 93 1022.1
20260901011525 69 118 0.0 0.0 0.00 0.01 0.01 93 1021.9
20260901011022 69 117 0.0 0.0 0.00 0.01 0.01 93 1022.2
20260901010517 69 116 0.0 0.0 0.00 0.01 0.01 93 1022.1
20260901010017 69 115 0.0 0.0 0.00 0.01 0.01 93 1022.1
20260901005516 69 116 0.0 0.0 0.00 0.01 0.01 93 1021.9
20260901005012 69 116 0.0 0.0 0.00 0.01 0.01 93 1021.9
20260901004511 69 117 0.0 0.0 0.00 0.01 0.01 93 1021.8
20260901004006 69 118 0.0 0.0 0.00 0.01 0.01 93 1021.9
20260901003501 69 112 0.0 0.0 0.00 0.01 0.01 93 1021.8
20260901002959 69 113 0.0 0.0 0.00 0.01 0.01 93 1021.8
20260901002454 69 115 0.0 0.0 0.00 0.01 0.01 93 1021.7
20260901001948 69 116 0.0 0.0 0.00 0.01 0.01 93 1021.8
20260901001444 69 122 0.0 0.0 0.00 0.01 0.01 93 1021.3
20260901000939 69 124 0.0 0.0 0.00 0.01 0.01 93 1021.5
20260901000435 69 116 0.0 0.0 0.00 0.01 0.01 93 1021.6
20260831235932 69 119 0.0 0.0 0.00 0.01 0.01 93 1021.7
20260831235429 69 117 0.0 0.0 0.00 0.01 0.01 92 1021.7
20260831234924 70 126 0.0 0.0 0.00 0.01 0.01 92 1021.7
20260831234423 70 119 0.0 0.0 0.00 0.01 0.01 92 1021.8
20260831233919 70 116 0.0 0.0 0.00 0.01 0.01 92 1021.9
20260831233414 70 116 0.0 0.0 0.00 0.01 0.01 92 1021.9
20260831232909 70 117 0.0 0.0 0.00 0.01 0.01 92 1021.9
20260831232405 70 116 0.0 0.0 0.00 0.01 0.01 92 1022.1
20260831231901 70 116 0.0 0.0 0.00 0.01 0.01 92 1021.9
20260831231357 70 118 0.0 0.0 0.00 0.01 0.01 92 1022.0
20260831230852 70 116 0.0 0.0 0.00 0.01 0.01 91 1021.8
20260831230347 70 110 0.0 0.0 0.00 0.01 0.01 91 1022.1
20260831225841 71 119 0.0 0.0 0.00 0.01 0.01 91 1022.2
20260831225336 71 114 0.0 0.0 0.00 0.01 0.01 91 1022.1
20260831224832 71 116 0.0 0.0 0.00 0.01 0.01 91 1022.0
20260831224326 71 119 0.0 0.0 0.00 0.01 0.01 91 1022.1
20260831223821 71 117 0.0 0.0 0.00 0.01 0.01 91 1022.1
20260831223318 70 114 0.0 0.0 0.00 0.01 0.01 91 1021.9
20260831222815 70 116 0.0 0.0 0.00 0.01 0.01 91 1022.1
20260831222310 70 112 0.0 0.0 0.00 0.01 0.01 91 1022.3
20260831221805 70 113 0.0 0.0 0.00 0.01 0.01 90 1022.3
20260831221300 71 120 0.0 0.0 0.00 0.01 0.01 90 1022.3
20260831220800 71 118 0.0 0.0 0.00 0.01 0.01 90 1022.3
20260831220255 71 117 0.0 0.0 0.00 0.01 0.01 90 1022.2
20260831215750 71 124 0.0 0.0 0.00 0.01 0.01 89 1022.1
20260831215246 71 118 0.0 0.0 0.00 0.01 0.01 89 1022.2
20260831214743 71 116 0.0 0.0 0.00 0.01 0.01 89 1022.3
20260831214240 71 120 0.0 0.0 0.00 0.01 0.01 88 1022.4
20260831213735 71 116 0.0 1.0 0.00 0.01 0.01 88 1022.3
20260831213232 71 136 1.0 1.0 0.00 0.01 0.01 88 1022.2
20260831212726 71 116 0.0 0.0 0.00 0.01 0.01 88 1022.2
20260831212223 71 119 0.0 1.0 0.00 0.01 0.01 88 1022.2
20260831211721 72 146 0.0 1.0 0.00 0.01 0.01 87 1022.2
20260831211216 72 127 1.0 1.0 0.00 0.01 0.01 86 1022.1
20260831210711 72 134 1.0 1.0 0.00 0.01 0.01 86 1022.0
20260831210207 73 121 0.0 0.0 0.00 0.01 0.01 86 1022.0
20260831205706 73 120 0.0 1.0 0.00 0.01 0.01 85 1022.1
20260831205202 73 121 0.0 0.0 0.00 0.01 0.01 84 1022.1
20260831204657 73 120 0.0 0.0 0.00 0.01 0.01 83 1022.4
20260831204155 73 119 0.0 0.0 0.00 0.01 0.01 82 1022.2
20260831203650 73 120 0.0 1.0 0.00 0.01 0.01 82 1022.0
20260831203149 74 124 0.0 1.0 0.00 0.01 0.01 83 1021.9
20260831202648 74 113 0.0 1.0 0.00 0.01 0.01 82 1022.1
20260831202143 75 122 0.0 0.0 0.00 0.01 0.01 81 1022.1
20260831201642 75 116 0.0 1.0 0.00 0.01 0.01 80 1022.3
20260831201137 75 116 0.0 0.0 0.00 0.01 0.01 79 1022.3
20260831200628 75 117 0.0 1.0 0.00 0.01 0.01 79 1022.4
20260831200127 75 117 0.0 1.0 0.00 0.01 0.01 80 1022.4
20260831195623 75 111 0.0 0.0 0.00 0.01 0.01 78 1022.3
20260831195118 75 117 0.0 0.0 0.00 0.01 0.01 77 1022.5
20260831194613 76 139 1.0 1.0 0.00 0.01 0.01 76 1022.4
20260831194108 76 115 0.0 1.0 0.00 0.01 0.01 76 1022.6
20260831193603 76 117 0.0 1.0 0.00 0.01 0.01 76 1022.5
20260831193103 76 123 0.0 0.0 0.00 0.01 0.01 75 1022.6
20260831192558 76 127 1.0 1.0 0.00 0.01 0.01 76 1022.6
20260831192054 77 128 1.0 1.0 0.00 0.01 0.01 74 1022.9
20260831191549 77 117 0.0 1.0 0.00 0.01 0.01 73 1022.7
20260831191045 77 121 0.0 1.0 0.00 0.01 0.01 73 1022.8
20260831190541 76 149 1.0 1.0 0.00 0.01 0.01 74 1022.9
20260831190039 77 147 2.0 2.0 0.00 0.01 0.01 72 1022.9
20260831185535 78 120 0.0 0.0 0.00 0.01 0.01 71 1023.1
20260831185031 78 85 0.0 1.0 0.00 0.01 0.01 69 1023.1
20260831184530 78 138 0.0 1.0 0.00 0.01 0.01 67 1023.1
20260831184025 78 120 0.0 0.0 0.00 0.01 0.01 67 1023.2
20260831183524 77 116 1.0 1.0 0.00 0.01 0.01 68 1023.3
20260831183019 78 168 1.0 2.0 0.00 0.01 0.01 67 1023.0
20260831182513 78 135 1.0 1.0 0.00 0.01 0.01 64 1023.1
20260831182009 78 94 0.0 1.0 0.00 0.01 0.01 64 1023.1
20260831181504 79 118 1.0 1.0 0.00 0.01 0.01 65 1023.2
20260831180959 79 177 1.0 2.0 0.00 0.01 0.01 65 1023.2
20260831180453 79 124 0.0 1.0 0.00 0.01 0.01 66 1023.2
20260831175952 79 105 2.0 2.0 0.00 0.01 0.01 64 1023.6
20260831175449 78 137 0.0 1.0 0.00 0.01 0.01 65 1023.5
20260831174944 78 113 1.0 1.0 0.00 0.01 0.01 64 1023.5
20260831174440 77 125 0.0 2.0 0.00 0.01 0.01 71 1023.9
20260831173939 78 119 1.0 1.0 0.00 0.01 0.01 68 1023.8
20260831173438 79 66 1.0 2.0 0.00 0.01 0.01 64 1023.6
20260831172934 78 149 1.0 1.0 0.00 0.01 0.01 64 1023.6
20260831172429 79 82 1.0 2.0 0.00 0.01 0.01 65 1023.4
20260831171923 78 101 1.0 2.0 0.00 0.01 0.01 65 1023.8
20260831171420 78 216 2.0 3.0 0.00 0.01 0.01 65 1023.6
20260831170916 78 231 1.0 2.0 0.00 0.01 0.01 67 1023.6
20260831170412 78 246 1.0 2.0 0.00 0.01 0.01 64 1023.4
20260831165908 78 147 1.0 1.0 0.00 0.01 0.01 67 1023.5
20260831165404 77 166 1.0 1.0 0.00 0.01 0.01 67 1023.5
20260831164901 77 143 0.0 2.0 0.00 0.01 0.01 67 1023.9
20260831164357 77 124 1.0 2.0 0.00 0.01 0.01 68 1023.8
20260831163852 77 122 1.0 2.0 0.00 0.01 0.01 68 1023.5
20260831163347 76 120 1.0 2.0 0.00 0.01 0.01 69 1023.8
20260831162846 76 129 1.0 2.0 0.00 0.01 0.01 70 1024.0
20260831162341 77 145 1.0 2.0 0.00 0.01 0.01 70 1024.0
20260831161840 77 112 1.0 1.0 0.00 0.01 0.01 68 1023.9
20260831161336 76 102 1.0 2.0 0.00 0.01 0.01 68 1023.8
20260831160831 76 156 1.0 2.0 0.00 0.01 0.01 68 1024.0
20260831160326 76 117 0.0 2.0 0.00 0.01 0.01 67 1023.8
20260831155821 76 107 0.0 2.0 0.00 0.01 0.01 68 1024.0
20260831155321 75 140 0.0 1.0 0.00 0.01 0.01 68 1024.0
20260831154816 75 133 0.0 2.0 0.00 0.01 0.01 69 1024.1
20260831154313 74 122 0.0 2.0 0.00 0.01 0.01 74 1024.2
20260831153811 75 110 1.0 2.0 0.00 0.01 0.01 72 1023.6
20260831153307 75 120 2.0 2.0 0.00 0.01 0.01 71 1023.8
20260831152803 75 121 1.0 2.0 0.00 0.01 0.01 71 1023.8
20260831152259 75 111 3.0 3.0 0.00 0.01 0.01 71 1023.8
20260831151754 73 144 1.0 2.0 0.00 0.01 0.01 73 1024.0
20260831151253 76 138 2.0 3.0 0.00 0.01 0.01 76 1024.2
20260831150748 76 149 1.0 1.0 0.00 0.01 0.01 77 1024.0
20260831150244 74 140 1.0 2.0 0.00 0.01 0.01 79 1024.1
20260831145742 74 160 1.0 2.0 0.00 0.01 0.01 80 1024.2
20260831145239 72 135 1.0 1.0 0.00 0.01 0.01 81 1024.3
20260831144734 72 140 1.0 2.0 0.00 0.01 0.01 84 1024.0
20260831144230 73 112 1.0 1.0 0.00 0.01 0.01 83 1024.2
20260831143730 73 127 1.0 1.0 0.00 0.01 0.01 83 1024.1
20260831143225 73 127 1.0 2.0 0.00 0.01 0.01 82 1024.1
20260831142721 73 139 1.0 1.0 0.00 0.01 0.01 81 1024.3
20260831142216 73 122 0.0 3.0 0.00 0.01 0.01 83 1024.1
20260831141715 73 162 1.0 1.0 0.00 0.01 0.01 83 1023.8
20260831141210 72 150 0.0 3.0 0.00 0.01 0.01 82 1024.1
20260831140710 72 174 1.0 1.0 0.00 0.01 0.01 85 1024.0
20260831140205 72 140 0.0 1.0 0.00 0.01 0.01 86 1024.0
20260831135703 71 122 0.0 2.0 0.00 0.01 0.01 90 1023.6
20260831135158 71 143 1.0 1.0 0.00 0.01 0.01 88 1023.6
20260831134654 71 115 0.0 1.0 0.00 0.01 0.01 92 1023.8
20260831134149 70 141 0.0 2.0 0.00 0.01 0.01 93 1024.0
20260831133648 70 114 0.0 1.0 0.00 0.01 0.01 93 1023.8
20260831133143 69 77 1.0 2.0 0.00 0.01 0.01 94 1023.8
20260831132640 68 104 0.0 0.0 0.00 0.01 0.01 94 1023.9
20260831132138 68 110 0.0 0.0 0.00 0.01 0.01 95 1023.8
20260831131633 67 113 0.0 2.0 0.00 0.01 0.01 96 1023.9
20260831131130 67 116 0.0 1.0 0.00 0.01 0.01 96 1023.8
20260831130625 67 95 0.0 0.0 0.00 0.01 0.01 96 1023.9
20260831130121 66 111 0.0 0.0 0.00 0.01 0.01 96 1023.6
20260831125619 67 120 0.0 0.0 0.00 0.01 0.01 97 1023.8
20260831125115 66 125 0.0 0.0 0.00 0.01 0.01 97 1023.9
20260831124611 65 114 0.0 0.0 0.00 0.01 0.01 97 1023.6
20260831124106 65 130 0.0 0.0 0.07 0.01 0.01 97 1024.0
20260831123606 65 111 0.0 0.0 0.07 0.01 0.01 97 1024.0
20260831123100 65 127 0.0 0.0 0.00 0.00 0.00 97 1023.9
20260831122600 65 104 0.0 0.0 0.00 0.00 0.00 97 1024.0
20260831122056 65 108 0.0 1.0 0.00 0.00 0.00 97 1023.9
20260831121555 65 90 0.0 0.0 0.00 0.00 0.00 97 1023.9
20260831121052 65 117 0.0 1.0 0.00 0.00 0.00 97 1023.5
20260831120551 65 99 0.0 1.0 0.00 0.00 0.00 97 1023.5
20260831120047 64 109 0.0 0.0 0.00 0.00 0.00 97 1023.9
20260831115542 64 110 0.0 0.0 0.00 0.00 0.00 97 1023.8
20260831115037 64 101 0.0 0.0 0.00 0.00 0.00 97 1023.5
20260831114536 64 108 0.0 0.0 0.00 0.00 0.00 97 1023.8
20260831114031 64 102 0.0 0.0 0.00 0.00 0.00 97 1023.5
20260831113531 64 97 0.0 0.0 0.00 0.00 0.00 97 1023.6
20260831113027 64 85 0.0 0.0 0.00 0.00 0.00 97 1023.5
20260831112526 64 101 0.0 0.0 0.00 0.00 0.00 97 1023.3
20260831112021 64 106 0.0 0.0 0.00 0.00 0.00 97 1023.3
20260831111517 64 98 0.0 0.0 0.00 0.00 0.00 97 1023.2
20260831111012 64 106 0.0 0.0 0.00 0.00 0.00 97 1023.4
20260831110508 64 97 0.0 0.0 0.00 0.00 0.00 97 1023.2
20260831110007 64 105 0.0 0.0 0.00 0.00 0.00 97 1023.1
20260831105502 64 102 0.0 0.0 0.00 0.00 0.00 97 1023.1
20260831104957 64 105 0.0 0.0 0.00 0.00 0.00 97 1023.0
20260831104453 64 106 0.0 0.0 0.00 0.00 0.00 97 1022.9
20260831103949 64 95 0.0 0.0 0.00 0.00 0.00 97 1022.7
20260831103444 64 99 0.0 1.0 0.00 0.00 0.00 97 1022.9
20260831102939 64 102 0.0 0.0 0.00 0.00 0.00 97 1022.9
20260831102439 64 90 0.0 0.0 0.00 0.00 0.00 97 1022.7
20260831101934 64 106 0.0 0.0 0.00 0.00 0.00 97 1022.8
20260831101429 64 103 0.0 0.0 0.00 0.00 0.00 97 1022.6
20260831100925 65 106 0.0 0.0 0.00 0.00 0.00 97 1022.4
20260831100421 65 105 0.0 0.0 0.00 0.00 0.00 97 1022.5
20260831095915 65 107 0.0 0.0 0.00 0.00 0.00 97 1022.6
20260831095415 65 104 0.0 0.0 0.00 0.00 0.00 97 1022.7
20260831094910 65 103 0.0 0.0 0.00 0.00 0.00 97 1022.7
20260831094406 65 80 0.0 0.0 0.00 0.00 0.00 97 1022.7
20260831093902 65 101 0.0 0.0 0.00 0.00 0.00 97 1022.6
20260831093356 65 106 0.0 0.0 0.00 0.00 0.00 97 1022.8
20260831092853 65 101 0.0 0.0 0.00 0.00 0.00 97 1022.6
20260831092349 65 106 0.0 0.0 0.00 0.00 0.00 97 1022.6
20260831091844 65 105 0.0 0.0 0.00 0.00 0.00 97 1022.9
20260831091339 65 109 0.0 0.0 0.00 0.00 0.00 97 1022.6
20260831090834 65 105 0.0 0.0 0.00 0.00 0.00 97 1022.5
20260831090330 65 104 0.0 0.0 0.00 0.00 0.00 97 1022.5
20260831085827 65 103 0.0 0.0 0.00 0.00 0.00 97 1022.5
20260831085326 65 107 0.0 0.0 0.00 0.00 0.00 97 1022.5
20260831084821 66 113 0.0 0.0 0.00 0.00 0.00 97 1022.6
20260831084318 66 104 0.0 0.0 0.00 0.00 0.00 97 1022.5
20260831083813 66 106 0.0 0.0 0.00 0.00 0.00 97 1022.3
20260831083309 66 106 0.0 0.0 0.00 0.00 0.00 97 1022.4
20260831082808 66 107 0.0 0.0 0.00 0.00 0.00 97 1022.4
20260831082306 66 107 0.0 0.0 0.00 0.00 0.00 97 1022.5
20260831081758 66 108 0.0 0.0 0.00 0.00 0.00 97 1022.5
20260831081254 66 112 0.0 0.0 0.00 0.00 0.00 97 1022.6
20260831080749 66 111 0.0 0.0 0.00 0.00 0.00 97 1022.6
20260831080243 66 107 0.0 0.0 0.00 0.00 0.00 97 1022.4
20260831075740 66 110 0.0 0.0 0.00 0.00 0.00 97 1022.5
20260831075235 66 111 0.0 0.0 0.00 0.00 0.00 97 1022.2
20260831074734 66 114 0.0 0.0 0.00 0.00 0.00 97 1022.1
20260831074228 66 108 0.0 0.0 0.00 0.00 0.00 97 1022.3
20260831073724 66 108 0.0 0.0 0.00 0.00 0.00 97 1022.2
20260831073223 66 106 0.0 0.0 0.00 0.00 0.00 97 1022.5
20260831072718 66 105 0.0 0.0 0.00 0.00 0.00 97 1022.2
20260831072215 66 95 0.0 0.0 0.00 0.00 0.00 97 1022.2
20260831071714 66 99 0.0 0.0 0.00 0.00 0.00 97 1022.2
20260831071209 66 109 0.0 0.0 0.00 0.00 0.00 97 1022.6
20260831070703 66 95 0.0 0.0 0.00 0.00 0.00 97 1022.4
20260831070157 66 104 0.0 0.0 0.00 0.00 0.00 97 1022.5
20260831065656 66 97 0.0 0.0 0.00 0.00 0.00 97 1022.3
20260831065155 66 99 0.0 0.0 0.00 0.00 0.00 97 1022.4
20260831064650 66 106 0.0 0.0 0.00 0.00 0.00 97 1022.4
20260831064145 66 101 0.0 0.0 0.00 0.00 0.00 97 1022.4
20260831063641 66 107 0.0 0.0 0.00 0.00 0.00 97 1022.4
20260831063131 66 98 0.0 0.0 0.00 0.00 0.00 97 1022.5
20260831062630 66 105 0.0 0.0 0.00 0.00 0.00 97 1022.3
20260831062130 66 111 0.0 0.0 0.00 0.00 0.00 97 1022.3
20260831061628 67 110 0.0 0.0 0.00 0.00 0.00 97 1022.2
20260831061125 67 124 0.0 0.0 0.00 0.00 0.00 97 1022.1
20260831060621 67 95 0.0 0.0 0.00 0.00 0.00 96 1022.4
20260831060115 67 112 0.0 0.0 0.00 0.00 0.00 96 1022.4
20260831055614 67 112 0.0 0.0 0.00 0.00 0.00 96 1022.3
20260831055110 67 116 0.0 0.0 0.00 0.00 0.00 96 1022.4
20260831054609 67 111 0.0 0.0 0.00 0.00 0.00 96 1022.2
20260831054109 67 114 0.0 0.0 0.00 0.00 0.00 96 1022.1
20260831053608 67 112 0.0 0.0 0.00 0.00 0.00 96 1022.1
20260831053108 67 110 0.0 0.0 0.00 0.00 0.00 96 1022.0
20260831052607 67 109 0.0 0.0 0.00 0.00 0.00 96 1022.1
20260831052101 67 106 0.0 0.0 0.00 0.00 0.00 96 1022.1
20260831051559 67 88 0.0 1.0 0.00 0.00 0.00 96 1022.0
20260831051058 67 102 0.0 1.0 0.00 0.00 0.00 96 1021.9
20260831050558 67 85 1.0 2.0 0.00 0.00 0.00 96 1022.0
20260831050056 67 91 1.0 1.0 0.00 0.00 0.00 96 1022.0
20260831045556 67 58 1.0 2.0 0.00 0.00 0.00 96 1022.3
20260831045052 67 78 1.0 2.0 0.00 0.00 0.00 96 1022.3
20260831044548 67 99 1.0 2.0 0.00 0.00 0.00 96 1022.2
20260831044042 68 28 1.0 2.0 0.00 0.00 0.00 96 1022.1
20260831043537 68 73 1.0 3.0 0.00 0.00 0.00 96 1021.9
20260831043033 68 107 1.0 1.0 0.00 0.00 0.00 96 1021.7
20260831042532 68 122 0.0 0.0 0.00 0.00 0.00 96 1021.9
20260831042027 68 106 1.0 1.0 0.00 0.00 0.00 96 1021.9
20260831041522 68 98 1.0 1.0 0.00 0.00 0.00 96 1021.8
20260831041021 68 96 1.0 1.0 0.00 0.00 0.00 96 1021.9